Home > Weather > Germantown > Past weeks

Flag for U.S.A. Weather for the Past 2 Weeks in Germantown, Maryland, U.S.A.

Now
28 °F

Clear.


Feels Like: 28 °F
Forecast: 29 / 43 °F
Wind: No wind

Location: Frederick Municipal Airport

Current Time: Feb 8, 2016 at 1:09:09 AM

Latest Report: Feb 8, 2016 at 12:45 AM


Visibility: 10 mi

Pressure: 29.88 "Hg

Humidity: 93%

Dew point: 27 °F

Location of GermantownLocation

Historic Weather in Germantown — Graph

°F

Germantown Temperature Yesterday

Maximum temperature yesterday: 45 °F (at 2:47 PM)
Minimum temperature yesterday: 21 °F (at 7:55 AM)
Average temperature yesterday: 30 °F

High & Low Weather Summary for the Past Weeks

 TemperatureHumidityPressure
High55 °F (Jan 31, 4:51 PM)100% (Jan 24, 4:05 AM)30.48 "Hg (Jan 24, 4:05 AM)
Low3 °F (Jan 25, 4:10 AM)42% (Jan 30, 2:50 PM)29.58 "Hg (Jan 29, 4:35 AM)
Average31 °F83%30.08 "Hg
* Reported Jan 24 12:05 AM — Feb 8 12:25 AM, Germantown, Weather by CustomWeather, © 2016

Note: Actual official high and low records may vary slightly from our data, if they occured in-between our weather recording intervals... More about our weather records

Advertising

Germantown Weather History for the Previous 24 Hours

 ConditionsComfort  
Time TempWeatherWind HumidityBarometerVisibility
12:25 AM
Mon, Feb 8
28 °FClear.No wind93%29.89 "Hg10 mi
11:45 PM
Sun, Feb 7
28 °FClear.No wind93%29.90 "Hg10 mi
11:25 PM30 °FClear.No wind86%29.91 "Hg10 mi
11:05 PM30 °FClear.No wind86%29.92 "Hg10 mi
10:25 PM32 °FClear.3 mph87%29.94 "Hg10 mi
9:45 PM30 °FClear.No wind86%29.95 "Hg10 mi
8:45 PM32 °FClear.No wind80%29.97 "Hg10 mi
8:05 PM32 °FClear.No wind87%29.99 "Hg10 mi
7:47 PM34 °FClear.No wind75%29.99 "Hg10 mi
7:25 PM32 °FClear.No wind93%29.99 "Hg10 mi
6:50 PM34 °FClear.No wind81%30.00 "Hg10 mi
5:48 PM39 °FClear.No wind61%30.01 "Hg10 mi
4:48 PM43 °FSunny.5 mph57%30.02 "Hg10 mi
3:46 PM45 °FSunny.5 mph49%30.03 "Hg10 mi
2:47 PM45 °FSunny.5 mph49%30.06 "Hg10 mi
1:47 PM43 °FSunny.No wind53%30.11 "Hg10 mi
12:48 PM37 °FSunny.No wind65%30.14 "Hg10 mi
11:47 AM36 °FSunny.No wind75%30.15 "Hg10 mi
10:47 AM30 °FSunny.No wind93%30.20 "Hg10 mi
9:53 AM27 °FSunny.No wind93%30.23 "Hg10 mi
8:50 AM25 °FSunny.No wind100%30.21 "Hg10 mi
7:55 AM21 °FSunny.No wind100%30.22 "Hg10 mi
5:20 AM23 °FClear.No wind100%30.24 "Hg10 mi
5:00 AM23 °FClear.No wind100%30.23 "Hg10 mi
4:40 AM23 °FClear.3 mph93%30.22 "Hg10 mi
4:20 AM25 °FClear.3 mph93%30.22 "Hg10 mi
4:00 AM25 °FClear.5 mph93%30.23 "Hg10 mi
3:40 AM23 °FClear.5 mph100%30.22 "Hg10 mi
3:20 AM23 °FClear.No wind100%30.23 "Hg10 mi
3:00 AM23 °FClear.No wind100%30.25 "Hg10 mi
2:40 AM25 °FClear.No wind93%30.25 "Hg10 mi
2:20 AM23 °FClear.3 mph100%30.26 "Hg10 mi
2:00 AM27 °FClear.No wind100%30.26 "Hg10 mi
1:40 AM27 °FClear.No wind100%30.26 "Hg10 mi
1:20 AM25 °FClear.No wind93%30.26 "Hg10 mi
1:00 AM25 °FClear.No wind100%30.26 "Hg10 mi
Weather by CustomWeather, © 2016

See weather overviewHow to use our weather pages